Back to catalog

DELTA 1 DEB

AliveSSO
NORAD 19360·DEBRIS·🇺🇸 United States

Launched Nov 6, 1973 from Vandenberg Space Force Base

Loading…

Next Passes (next 24 hours)

TLE

FreshSource: Space-Track

Epoch: Sep 14, 2026, 04:00 UTC

1 19360U 73086HE  26257.16678475  .00000922  00000-0  57608-2 0  9990
2 19360 101.8895 336.4981 0043877 308.5668  80.1667 12.57300501891013

Track DELTA 1 DEB in real time with AllMySat

Download on the App Store